Tracking 19644 objects as of 26-Apr-2019
HD Live streaming from Space Station
objects crossing your sky now

LES 9

Track LES 9 now!
LES 9 is classified as:


NORAD ID: 8747
Int'l Code: 1976-023B
Perigee: 35,713.7 km
Apogee: 35,876.0 km
Inclination: 17.2 °
Period: 1,436.2 minutes
Semi major axis: 42165 km
RCS: 3.1777 m2 (large)
Launch date: March 15, 1976
Source: United States (US)
Launch site: AIR FORCE EASTERN TEST RANGE (AFETR)

Original purpose was "Air Force sponsored program in space communications"; nuclear-powered; circuits jam-resistant to operate in hostile environment.
aabbcc
Your satellite tracking list
Your tracking list is empty




NASA's NSSDC Master Catalog

Two Line Element Set (TLE):
1  8747U 76023B   19115.44411222 -.00000102 +00000-0 +00000-0 0  9995
2  8747 017.1832 071.9365 0019247 104.6445 091.7691 01.00267926103514
Source of the keplerian elements: AFSPC